| time (UTC) | temp C | wind direction | speed KPH | gust KPH | rain 1hr cm | rain 24hr cm | rain mn cm | humidity % | barometer mb |
| 20260502190011 | 18 | 300 | 16.1 | 30.6 | 0.00 | 0.00 | 0.00 | 36 | 941.6 |
| 20260502184505 | 18 | 284 | 9.7 | 24.1 | 0.00 | 0.00 | 0.00 | 38 | 941.7 |
| 20260502183003 | 18 | 316 | 9.7 | 27.4 | 0.00 | 0.00 | 0.00 | 38 | 941.9 |
| 20260502181500 | 18 | 337 | 9.7 | 25.7 | 0.00 | 0.00 | 0.00 | 39 | 942.0 |
| 20260502180124 | 18 | 333 | 9.7 | 22.5 | 0.00 | 0.00 | 0.00 | 38 | 942.0 |
| 20260502163050 | 17 | 298 | 11.3 | 22.5 | 0.00 | 0.00 | 0.00 | 38 | 941.5 |
| 20260502161546 | 16 | 315 | 8.0 | 19.3 | 0.00 | 0.00 | 0.00 | 41 | 941.3 |
| 20260502151535 | 15 | 302 | 3.2 | 16.1 | 0.00 | 0.00 | 0.00 | 47 | 941.1 |
| 20260502123008 | 7 | 280 | 0.0 | 1.6 | 0.00 | 0.00 | 0.00 | 64 | 940.5 |
| 20260502121508 | 7 | 280 | 0.0 | 3.2 | 0.00 | 0.00 | 0.00 | 63 | 940.4 |
| 20260502114506 | 8 | 279 | 3.2 | 14.5 | 0.00 | 0.00 | 0.00 | 59 | 940.3 |
| 20260502113012 | 8 | 271 | 4.8 | 14.5 | 0.00 | 0.00 | 0.00 | 59 | 940.1 |
| 20260502111504 | 8 | 264 | 1.6 | 6.4 | 0.00 | 0.00 | 0.00 | 59 | 939.9 |
| 20260502110003 | 7 | 268 | 1.6 | 6.4 | 0.00 | 0.00 | 0.00 | 60 | 939.8 |
| 20260502104502 | 7 | 275 | 0.0 | 3.2 | 0.00 | 0.00 | 0.00 | 58 | 939.8 |
| 20260502103001 | 8 | 276 | 0.0 | 1.6 | 0.00 | 0.00 | 0.00 | 56 | 939.7 |
| 20260502101621 | 8 | 276 | 0.0 | 3.2 | 0.00 | 0.00 | 0.00 | 53 | 939.7 |
| 20260502100116 | 9 | 277 | 0.0 | 3.2 | 0.00 | 0.00 | 0.00 | 51 | 940.0 |
| 20260502071534 | 8 | 153 | 0.0 | 0.0 | 0.00 | 0.00 | 0.00 | 48 | 940.4 |
| 20260502070033 | 8 | 153 | 0.0 | 3.2 | 0.00 | 0.00 | 0.00 | 46 | 940.4 |
| 20260502064539 | 8 | 148 | 0.0 | 8.0 | 0.00 | 0.00 | 0.00 | 45 | 940.4 |
| 20260502063031 | 8 | 156 | 0.0 | 8.0 | 0.00 | 0.00 | 0.00 | 46 | 940.4 |
| 20260502061528 | 8 | 158 | 0.0 | 4.8 | 0.00 | 0.00 | 0.00 | 46 | 940.5 |
| 20260502060027 | 8 | 146 | 1.6 | 4.8 | 0.00 | 0.00 | 0.00 | 46 | 940.6 |
| 20260502054525 | 8 | 125 | 1.6 | 4.8 | 0.00 | 0.00 | 0.00 | 45 | 940.6 |
| 20260502053027 | 8 | 135 | 0.0 | 3.2 | 0.00 | 0.00 | 0.00 | 46 | 940.8 |
| 20260502051522 | 8 | 135 | 0.0 | 3.2 | 0.00 | 0.00 | 0.00 | 44 | 940.9 |
| 20260502050026 | 8 | 126 | 0.0 | 4.8 | 0.00 | 0.00 | 0.00 | 44 | 941.0 |
| 20260502044519 | 7 | 129 | 0.0 | 3.2 | 0.00 | 0.00 | 0.00 | 47 | 941.1 |
| 20260502043021 | 6 | 136 | 0.0 | 1.6 | 0.00 | 0.00 | 0.00 | 48 | 941.2 |
| 20260502041517 | 7 | 136 | 0.0 | 1.6 | 0.00 | 0.00 | 0.00 | 45 | 941.3 |
| 20260502040022 | 8 | 136 | 0.0 | 3.2 | 0.00 | 0.00 | 0.00 | 42 | 941.4 |
| 20260502034515 | 8 | 142 | 0.0 | 3.2 | 0.00 | 0.00 | 0.00 | 41 | 941.6 |
| 20260502033013 | 9 | 145 | 0.0 | 4.8 | 0.00 | 0.00 | 0.00 | 39 | 941.7 |
| 20260502031512 | 9 | 190 | 0.0 | 3.2 | 0.00 | 0.00 | 0.00 | 39 | 941.7 |
| 20260502030012 | 9 | 192 | 0.0 | 3.2 | 0.00 | 0.00 | 0.00 | 39 | 941.7 |
| 20260502024510 | 10 | 192 | 0.0 | 3.2 | 0.00 | 0.00 | 0.00 | 37 | 941.7 |
| 20260502023009 | 11 | 192 | 1.6 | 3.2 | 0.00 | 0.00 | 0.00 | 36 | 941.8 |
| 20260502021508 | 13 | 192 | 0.0 | 3.2 | 0.00 | 0.00 | 0.00 | 33 | 941.8 |
| 20260502020015 | 16 | 192 | 0.0 | 3.2 | 0.00 | 0.00 | 0.00 | 29 | 941.8 |
| 20260502014505 | 17 | 192 | 1.6 | 4.8 | 0.00 | 0.00 | 0.00 | 25 | 942.0 |
| 20260502013004 | 18 | 192 | 1.6 | 8.0 | 0.00 | 0.00 | 0.00 | 22 | 942.0 |
| 20260502011512 | 20 | 196 | 3.2 | 11.3 | 0.00 | 0.00 | 0.00 | 21 | 942.1 |
| 20260502010001 | 20 | 202 | 1.6 | 11.3 | 0.00 | 0.00 | 0.00 | 20 | 942.2 |
| 20260502004501 | 20 | 185 | 4.8 | 16.1 | 0.00 | 0.00 | 0.00 | 20 | 942.4 |
| 20260502003059 | 20 | 190 | 4.8 | 14.5 | 0.00 | 0.00 | 0.00 | 19 | 942.4 |
| 20260502001557 | 20 | 205 | 4.8 | 14.5 | 0.00 | 0.00 | 0.00 | 19 | 942.6 |
| 20260502000112 | 21 | 253 | 3.2 | 12.9 | 0.00 | 0.00 | 0.00 | 19 | 942.8 |
| 20260501234555 | 21 | 212 | 6.4 | 14.5 | 0.00 | 0.00 | 0.00 | 18 | 942.8 |
| 20260501233053 | 20 | 243 | 4.8 | 19.3 | 0.00 | 0.00 | 0.00 | 18 | 942.8 |
| 20260501231601 | 20 | 258 | 4.8 | 16.1 | 0.00 | 0.00 | 0.00 | 20 | 943.0 |
| 20260501230050 | 21 | 209 | 4.8 | 12.9 | 0.00 | 0.00 | 0.00 | 19 | 943.1 |
| 20260501224558 | 20 | 257 | 4.8 | 16.1 | 0.00 | 0.00 | 0.00 | 20 | 943.1 |
| 20260501223046 | 21 | 225 | 6.4 | 12.9 | 0.00 | 0.00 | 0.00 | 20 | 943.3 |
| 20260501221605 | 20 | 204 | 4.8 | 14.5 | 0.00 | 0.00 | 0.00 | 19 | 943.5 |
| 20260501220048 | 21 | 209 | 4.8 | 14.5 | 0.00 | 0.00 | 0.00 | 21 | 943.6 |
| 20260501214541 | 20 | 190 | 4.8 | 14.5 | 0.00 | 0.00 | 0.00 | 21 | 943.9 |
| 20260501213041 | 20 | 226 | 4.8 | 19.3 | 0.00 | 0.00 | 0.00 | 20 | 944.0 |
| 20260501211537 | 20 | 190 | 8.0 | 19.3 | 0.00 | 0.00 | 0.00 | 20 | 944.3 |
| 20260501210036 | 20 | 264 | 8.0 | 19.3 | 0.00 | 0.00 | 0.00 | 21 | 944.3 |
| 20260501204533 | 20 | 223 | 4.8 | 12.9 | 0.00 | 0.00 | 0.00 | 22 | 944.4 |
| 20260501203032 | 19 | 223 | 6.4 | 22.5 | 0.00 | 0.00 | 0.00 | 23 | 944.6 |
| 20260501201530 | 20 | 160 | 4.8 | 14.5 | 0.00 | 0.00 | 0.00 | 23 | 944.7 |
| 20260501200027 | 19 | 200 | 3.2 | 16.1 | 0.00 | 0.00 | 0.00 | 26 | 944.7 |
| 20260501194529 | 18 | 223 | 4.8 | 19.3 | 0.00 | 0.00 | 0.00 | 24 | 944.7 |
| 20260501193035 | 18 | 196 | 1.6 | 22.5 | 0.00 | 0.00 | 0.00 | 23 | 944.9 |
| 20260501191531 | 18 | 185 | 3.2 | 16.1 | 0.00 | 0.00 | 0.00 | 25 | 945.1 |